Petersburg, AK

10:57 AM AKDT on April 29, 2017 (GMT -0800)
Johnson Petersburg

Weather History for PAPG - April, 2012

Change the Weather History Date:

Wednesday, April 18, 2012

  Actual Average Record
Temperature  
Mean Temperature 43 °F -  
Max Temperature 53 °F 45 °F 58 °F (1988)
Min Temperature 33 °F 32 °F 26 °F (2002)
Degree Days  
Heating Degree Days 22    
Moisture  
Dew Point 34 °F    
Average Humidity 70    
Maximum Humidity 87    
Minimum Humidity 41    
Precipitation  
Precipitation 0.00 in - - ()
Sea Level Pressure  
Sea Level Pressure 29.75 in    
Wind  
Wind Speed 3 mph (East)    
Max Wind Speed 10 mph    
Max Gust Speed 18 mph    
Visibility 10 miles    
Events      
Averages and records for this station are not official NWS values.
T = Trace of Precipitation, MM = Missing Value Source: NWS Daily Summary

Daily Weather History Graph

Daily Weather History Graph

Search for Another Location

Airport or City:

Trip Planner

Search our weather history database for the weather conditions in past years. The results will help you decide how hot, cold, wet, or windy it might be!

Date:

Astronomy

Apr. 18, 2012 Rise Set
Actual Time 5:34 AM AKDT 8:08 PM AKDT
Civil Twilight 4:52 AM AKDT 8:50 PM AKDT
Nautical Twilight 3:57 AM AKDT 9:46 PM AKDT
Astronomical Twilight 2:47 AM AKDT 10:58 PM AKDT
Moon 4:27 AM AKDT (4/18) 5:49 PM AKDT (4/18)
Length of Visible Light 15h 58m
Length of Day
14h 33m
Waning Crescent, 6% of the Moon is Illuminated
Apr 18
Waning Crescent
Apr 20
New
Apr 29
First Quarter
May 5
Full
May 12
Last Quarter

Hourly Weather History & Observations

Time (AKDT) Temp. Windchill Dew Point Humidity Pressure Visibility Wind Dir Wind Speed Gust Speed Precip Events Conditions
12:16 AM 37.4 °F - 30.2 °F 75% 29.78 in 10.0 mi Calm Calm - N/A   Partly Cloudy
12:36 AM 35.6 °F - 30.2 °F 81% 29.78 in 10.0 mi Calm Calm - N/A   Partly Cloudy
12:56 AM 37.4 °F - 30.2 °F 75% 29.77 in 10.0 mi Calm Calm - N/A   Clear
1:16 AM 35.6 °F - 30.2 °F 81% 29.76 in 10.0 mi Calm Calm - N/A   Clear
1:36 AM 35.6 °F 32.8 °F 30.2 °F 81% 29.76 in 10.0 mi WSW 3.5 mph - N/A   Clear
1:56 AM 35.6 °F - 30.2 °F 81% 29.76 in 10.0 mi Calm Calm - N/A   Scattered Clouds
2:16 AM 35.6 °F - 30.2 °F 81% 29.75 in 10.0 mi Calm Calm - N/A   Overcast
2:36 AM 37.4 °F - 30.2 °F 75% 29.75 in 10.0 mi Calm Calm - N/A   Overcast
2:56 AM 35.6 °F 32.8 °F 30.2 °F 81% 29.74 in 10.0 mi SE 3.5 mph - N/A   Overcast
3:16 AM 37.4 °F - 30.2 °F 75% 29.74 in 10.0 mi Calm Calm - N/A   Overcast
3:36 AM 35.6 °F - 30.2 °F 81% 29.74 in 10.0 mi Calm Calm - N/A   Mostly Cloudy
3:56 AM 37.4 °F 34.9 °F 32.0 °F 81% 29.73 in 10.0 mi ESE 3.5 mph - N/A   Scattered Clouds
4:16 AM 37.4 °F - 32.0 °F 81% 29.73 in 10.0 mi Calm Calm - N/A   Partly Cloudy
4:36 AM 33.8 °F 30.8 °F 28.4 °F 81% 29.73 in 10.0 mi South 3.5 mph - N/A   Clear
4:56 AM 35.6 °F - 30.2 °F 81% 29.72 in 10.0 mi Calm Calm - N/A   Scattered Clouds
5:16 AM 33.8 °F - 30.2 °F 87% 29.72 in 10.0 mi Calm Calm - N/A   Overcast
5:36 AM 35.6 °F - 30.2 °F 81% 29.71 in 10.0 mi Calm Calm - N/A   Overcast
5:56 AM 33.8 °F - 30.2 °F 87% 29.71 in 10.0 mi Calm Calm - N/A   Scattered Clouds
6:16 AM 35.6 °F 30.7 °F 32.0 °F 87% 29.71 in 10.0 mi ESE 5.8 mph - N/A   Scattered Clouds
6:36 AM 35.6 °F - 30.2 °F 81% 29.71 in 10.0 mi Calm Calm - N/A   Scattered Clouds
6:56 AM 35.6 °F - 32.0 °F 87% 29.71 in 10.0 mi Calm Calm - N/A   Mostly Cloudy
7:16 AM 37.4 °F - 33.8 °F 87% 29.71 in 10.0 mi Calm Calm - N/A   Mostly Cloudy
7:36 AM 39.2 °F - 35.6 °F 87% 29.71 in 10.0 mi Calm Calm - N/A   Mostly Cloudy
7:56 AM 42.8 °F 39.3 °F 35.6 °F 76% 29.71 in 10.0 mi NE 5.8 mph - N/A   Mostly Cloudy
8:16 AM 42.8 °F 41.1 °F 35.6 °F 76% 29.71 in 10.0 mi ENE 3.5 mph - N/A   Mostly Cloudy
8:36 AM 42.8 °F 41.1 °F 35.6 °F 76% 29.71 in 10.0 mi ENE 3.5 mph - N/A   Mostly Cloudy
8:56 AM 42.8 °F 41.1 °F 35.6 °F 76% 29.71 in 10.0 mi East 3.5 mph - N/A   Mostly Cloudy
9:16 AM 42.8 °F - 35.6 °F 76% 29.71 in 10.0 mi Calm Calm - N/A   Mostly Cloudy
9:36 AM 44.6 °F 43.1 °F 35.6 °F 71% 29.71 in 10.0 mi East 3.5 mph - N/A   Mostly Cloudy
9:56 AM 44.6 °F 43.1 °F 35.6 °F 71% 29.72 in 10.0 mi ENE 3.5 mph - N/A   Mostly Cloudy
10:16 AM 46.4 °F 43.5 °F 35.6 °F 66% 29.72 in 10.0 mi East 5.8 mph - N/A   Mostly Cloudy
10:36 AM 46.4 °F 44.3 °F 35.6 °F 66% 29.72 in 10.0 mi ENE 4.6 mph - N/A   Mostly Cloudy
10:56 AM 44.6 °F 42.2 °F 33.8 °F 66% 29.72 in 10.0 mi ENE 4.6 mph - N/A   Mostly Cloudy
11:16 AM 46.4 °F 44.3 °F 35.6 °F 66% 29.72 in 10.0 mi ENE 4.6 mph - N/A   Mostly Cloudy
11:36 AM 46.4 °F 43.5 °F 35.6 °F 66% 29.73 in 10.0 mi East 5.8 mph - N/A   Mostly Cloudy
11:56 AM 46.4 °F 44.3 °F 33.8 °F 62% 29.73 in 10.0 mi ENE 4.6 mph - N/A   Overcast
12:16 PM 46.4 °F 44.3 °F 35.6 °F 66% 29.73 in 10.0 mi East 4.6 mph - N/A   Overcast
12:36 PM 48.2 °F - 33.8 °F 58% 29.73 in 10.0 mi ENE 5.8 mph - N/A   Overcast
12:56 PM 50.0 °F - 33.8 °F 54% 29.73 in 10.0 mi ENE 8.1 mph - N/A   Overcast
1:16 PM 48.2 °F - 37.4 °F 66% 29.73 in 10.0 mi ENE 10.4 mph - N/A   Overcast
1:36 PM 48.2 °F - 35.6 °F 62% 29.73 in 10.0 mi NE 8.1 mph - N/A   Overcast
1:56 PM 51.8 °F - 33.8 °F 50% 29.73 in 10.0 mi ENE 5.8 mph - N/A   Scattered Clouds
2:16 PM 51.8 °F - 32.0 °F 47% 29.73 in 10.0 mi ENE 5.8 mph - N/A   Scattered Clouds
2:36 PM 53.6 °F - 32.0 °F 44% 29.72 in 10.0 mi East 6.9 mph - N/A   Scattered Clouds
2:56 PM 53.6 °F - 32.0 °F 44% 29.72 in 10.0 mi ENE 5.8 mph - N/A   Scattered Clouds
3:16 PM 53.6 °F - 32.0 °F 44% 29.72 in 10.0 mi ENE 5.8 mph - N/A   Scattered Clouds
3:36 PM 51.8 °F - 32.0 °F 47% 29.72 in 10.0 mi NE 4.6 mph - N/A   Scattered Clouds
3:56 PM 53.6 °F - 32.0 °F 44% 29.72 in 10.0 mi North 4.6 mph - N/A   Mostly Cloudy
4:16 PM 53.6 °F - 30.2 °F 41% 29.72 in 10.0 mi ENE 5.8 mph - N/A   Mostly Cloudy
4:36 PM 53.6 °F - 33.8 °F 47% 29.73 in 10.0 mi Calm Calm - N/A   Mostly Cloudy
4:56 PM 51.8 °F - 35.6 °F 54% 29.74 in 10.0 mi SSW 4.6 mph - N/A   Mostly Cloudy
5:16 PM 53.6 °F - 35.6 °F 51% 29.74 in 10.0 mi SSW 5.8 mph - N/A   Mostly Cloudy
5:36 PM 51.8 °F - 35.6 °F 54% 29.76 in 10.0 mi South 6.9 mph - N/A   Mostly Cloudy
5:56 PM 46.4 °F 45.2 °F 35.6 °F 66% 29.76 in 10.0 mi South 3.5 mph - N/A   Mostly Cloudy
6:16 PM 46.4 °F - 39.2 °F 76% 29.76 in 10.0 mi Calm Calm - N/A   Mostly Cloudy
6:36 PM 46.4 °F 43.5 °F 41.0 °F 81% 29.76 in 10.0 mi ESE 5.8 mph - N/A   Mostly Cloudy
6:56 PM 44.6 °F 43.1 °F 39.2 °F 81% 29.76 in 10.0 mi South 3.5 mph - N/A   Overcast
7:16 PM 44.6 °F 40.2 °F 39.2 °F 81% 29.77 in 10.0 mi SSE 8.1 mph - N/A   Overcast
7:36 PM 46.4 °F 45.2 °F 37.4 °F 71% 29.79 in 10.0 mi SE 3.5 mph - N/A   Overcast
7:56 PM 44.6 °F 42.2 °F 37.4 °F 76% 29.79 in 7.0 mi East 4.6 mph - N/A   Overcast
8:16 PM 44.6 °F 39.7 °F 39.2 °F 81% 29.79 in 7.0 mi East 9.2 mph - N/A   Overcast
8:36 PM 42.8 °F 37.5 °F 37.4 °F 81% 29.79 in 7.0 mi East 9.2 mph - N/A   Overcast
8:56 PM 42.8 °F - 37.4 °F 81% 29.80 in 7.0 mi Calm Calm - N/A   Mostly Cloudy
9:16 PM 44.6 °F - 37.4 °F 76% 29.81 in 7.0 mi Calm Calm - N/A   Mostly Cloudy
9:36 PM 44.6 °F 39.7 °F 35.6 °F 71% 29.81 in 7.0 mi ESE 9.2 mph - N/A   Mostly Cloudy
9:56 PM 44.6 °F 40.7 °F 35.6 °F 71% 29.81 in 7.0 mi ESE 6.9 mph - N/A   Overcast
10:16 PM 44.6 °F 42.2 °F 35.6 °F 71% 29.81 in 10.0 mi East 4.6 mph - N/A   Overcast
10:36 PM 44.6 °F 39.2 °F 35.6 °F 71% 29.81 in 10.0 mi SE 10.4 mph - N/A   Overcast
10:56 PM 44.6 °F 39.7 °F 35.6 °F 71% 29.81 in 10.0 mi ESE 9.2 mph - N/A   Overcast
11:16 PM 46.4 °F 42.9 °F 35.6 °F 66% 29.81 in 10.0 mi East 6.9 mph 16.1 mph N/A   Overcast
11:36 PM 46.4 °F 42.4 °F 35.6 °F 66% 29.82 in 10.0 mi East 8.1 mph - N/A   Overcast
11:56 PM 46.4 °F 42.4 °F 35.6 °F 66% 29.82 in 10.0 mi East 8.1 mph 18.4 mph N/A   Overcast